,,,PA_Meas_PMT16A,,PR_Meas_QMR101_102,,RH_Meas_QMH101,,SR_Meas_QMS101,,TA_Meas_QMH101,,GenWind,,GenWind,
date,time,status,PA,status,PR,status,RH,status,SR,status,TA,status,DirAvg,status,SpdAvg,
2014-08-06, 00:00:04,VALID,1009.94,VALID,0,VALID,104,VALID,0.112112,VALID,22.8562,VALID,8,VALID,0,
2014-08-06, 00:01:04,VALID,1009.95,VALID,0,VALID,104,VALID,0.112112,VALID,22.8368,VALID,8,VALID,0,
2014-08-06, 00:02:04,VALID,1009.94,VALID,0,VALID,104,VALID,0.112112,VALID,22.8368,VALID,8,VALID,0,
2014-08-06, 00:03:04,VALID,1009.9,VALID,0,VALID,104,VALID,0,VALID,22.8368,VALID,8,VALID,0,
2014-08-06, 00:04:04,VALID,1009.89,VALID,0,VALID,104,VALID,0.112112,VALID,22.835,VALID,8,VALID,0,
2014-08-06, 00:05:04,VALID,1009.85,VALID,0,VALID,104,VALID,0.112112,VALID,22.8562,VALID,8,VALID,0,
2014-08-06, 00:06:04,VALID,1009.82,VALID,0,VALID,104,VALID,0.112112,VALID,22.8562,VALID,8,VALID,0,
2014-08-06, 00:07:04,VALID,1009.79,VALID,0,VALID,104,VALID,0,VALID,22.8562,VALID,8,VALID,0,
2014-08-06, 00:08:04,VALID,1009.77,VALID,0,VALID,104,VALID,0.112112,VALID,22.835,VALID,8,VALID,0,
2014-08-06, 00:09:04,VALID,1009.73,VALID,0,VALID,104,VALID,0,VALID,22.835,VALID,8,VALID,0,
2014-08-06, 00:10:04,VALID,1009.74,VALID,0,VALID,104,VALID,0.112112,VALID,22.8562,VALID,8,VALID,0,
2014-08-06, 00:11:04,VALID,1009.67,VALID,0,VALID,104,VALID,0,VALID,22.8562,VALID,8,VALID,0,
2014-08-06, 00:12:04,VALID,1009.69,VALID,0,VALID,104,VALID,0,VALID,22.8757,VALID,8,VALID,0,
2014-08-06, 00:13:04,VALID,1009.67,VALID,0,VALID,104,VALID,0,VALID,22.8952,VALID,8,VALID,0,
2014-08-06, 00:14:04,VALID,1009.67,VALID,0,VALID,104,VALID,0.112112,VALID,22.9147,VALID,8,VALID,0,
2014-08-06, 00:15:04,VALID,1009.71,VALID,0,VALID,104,VALID,0.112112,VALID,22.9342,VALID,8,VALID,0,
2014-08-06, 00:16:04,VALID,1009.71,VALID,0,VALID,104,VALID,0,VALID,22.9147,VALID,8,VALID,0,
2014-08-06, 00:17:04,VALID,1009.72,VALID,0,VALID,104,VALID,0,VALID,22.9147,VALID,8,VALID,0,
2014-08-06, 00:18:04,VALID,1009.74,VALID,0,VALID,104,VALID,0.112112,VALID,22.8935,VALID,8,VALID,0,
2014-08-06, 00:19:04,VALID,1009.7,VALID,0,VALID,104,VALID,0.112112,VALID,22.9342,VALID,8,VALID,0,
2014-08-06, 00:20:04,VALID,1009.71,VALID,0,VALID,104,VALID,0.112112,VALID,22.9129,VALID,8,VALID,0,
2014-08-06, 00:21:04,VALID,1009.71,VALID,0,VALID,104,VALID,0.112112,VALID,22.9147,VALID,322,VALID,0,
2014-08-06, 00:22:04,VALID,1009.7,VALID,0,VALID,104,VALID,0.112112,VALID,22.9536,VALID,322,VALID,0,
2014-08-06, 00:23:04,VALID,1009.68,VALID,0,VALID,104,VALID,0,VALID,22.9926,VALID,322,VALID,0,
2014-08-06, 00:24:04,VALID,1009.7,VALID,0,VALID,104,VALID,0,VALID,23.0316,VALID,322,VALID,0,
2014-08-06, 00:25:04,VALID,1009.71,VALID,0,VALID,104,VALID,0.112112,VALID,23.0298,VALID,322,VALID,0,
2014-08-06, 00:26:04,VALID,1009.68,VALID,0,VALID,104,VALID,0.112112,VALID,23.0688,VALID,322,VALID,0,
2014-08-06, 00:27:04,VALID,1009.67,VALID,0,VALID,104,VALID,0.112112,VALID,23.1095,VALID,322,VALID,0,
2014-08-06, 00:28:04,VALID,1009.66,VALID,0,VALID,104,VALID,0.112112,VALID,23.0883,VALID,322,VALID,0,
2014-08-06, 00:29:04,VALID,1009.62,VALID,0,VALID,104,VALID,0.112112,VALID,23.1077,VALID,322,VALID,0,
2014-08-06, 00:30:04,VALID,1009.61,VALID,0,VALID,104,VALID,0.112112,VALID,23.129,VALID,322,VALID,0,
2014-08-06, 00:31:04,VALID,1009.62,VALID,0,VALID,104,VALID,0.112112,VALID,23.129,VALID,322,VALID,0,
2014-08-06, 00:32:04,VALID,1009.67,VALID,0,VALID,104,VALID,0.112112,VALID,23.129,VALID,322,VALID,0,
2014-08-06, 00:33:04,VALID,1009.67,VALID,0,VALID,104,VALID,0.112112,VALID,23.1485,VALID,322,VALID,0,
2014-08-06, 00:34:04,VALID,1009.63,VALID,0,VALID,104,VALID,0.112112,VALID,23.1485,VALID,322,VALID,0,
2014-08-06, 00:35:04,VALID,1009.64,VALID,0,VALID,104,VALID,0.112112,VALID,23.1485,VALID,322,VALID,0,
2014-08-06, 00:36:04,VALID,1009.61,VALID,0,VALID,104,VALID,0,VALID,23.1679,VALID,322,VALID,0,
2014-08-06, 00:37:04,VALID,1009.59,VALID,0,VALID,104,VALID,0.112112,VALID,23.2069,VALID,322,VALID,0,
2014-08-06, 00:38:04,VALID,1009.6,VALID,0,VALID,104,VALID,0.112112,VALID,23.1857,VALID,322,VALID,0,
2014-08-06, 00:39:04,VALID,1009.58,VALID,0,VALID,104,VALID,0,VALID,23.2264,VALID,322,VALID,0,
2014-08-06, 00:40:04,VALID,1009.54,VALID,0,VALID,104,VALID,0.112112,VALID,23.2654,VALID,322,VALID,0,
2014-08-06, 00:41:04,VALID,1009.49,VALID,0,VALID,104,VALID,0,VALID,23.2459,VALID,322,VALID,0,
2014-08-06, 00:42:04,VALID,1009.5,VALID,0,VALID,104,VALID,0,VALID,23.2671,VALID,322,VALID,0,
2014-08-06, 00:43:04,VALID,1009.42,VALID,0,VALID,104,VALID,0,VALID,23.2866,VALID,322,VALID,0,
2014-08-06, 00:44:04,VALID,1009.41,VALID,0,VALID,104,VALID,0,VALID,23.3061,VALID,322,VALID,0,
2014-08-06, 00:45:04,VALID,1009.34,VALID,0,VALID,104,VALID,0,VALID,23.3061,VALID,322,VALID,0,
2014-08-06, 00:46:04,VALID,1009.33,VALID,0,VALID,104,VALID,0,VALID,23.3061,VALID,322,VALID,0,
2014-08-06, 00:47:04,VALID,1009.32,VALID,0,VALID,104,VALID,0,VALID,23.2848,VALID,322,VALID,0,
2014-08-06, 00:48:04,VALID,1009.3,VALID,0,VALID,104,VALID,0,VALID,23.2848,VALID,322,VALID,0,
2014-08-06, 00:49:04,VALID,1009.33,VALID,0,VALID,104,VALID,0,VALID,23.2654,VALID,322,VALID,0,
2014-08-06, 00:50:04,VALID,1009.3,VALID,0,VALID,104,VALID,0,VALID,23.2671,VALID,322,VALID,0,
2014-08-06, 00:51:04,VALID,1009.32,VALID,0,VALID,104,VALID,0,VALID,23.2866,VALID,322,VALID,0,
2014-08-06, 00:52:04,VALID,1009.36,VALID,0,VALID,104,VALID,0,VALID,23.2654,VALID,322,VALID,0,
2014-08-06, 00:53:04,VALID,1009.36,VALID,0,VALID,104,VALID,0,VALID,23.2671,VALID,322,VALID,0,
2014-08-06, 00:54:04,VALID,1009.37,VALID,0,VALID,104,VALID,0,VALID,23.2654,VALID,322,VALID,0,
2014-08-06, 00:55:04,VALID,1009.37,VALID,0,VALID,104,VALID,0,VALID,23.2654,VALID,322,VALID,0,
2014-08-06, 00:56:04,VALID,1009.35,VALID,0,VALID,104,VALID,0.112112,VALID,23.2848,VALID,322,VALID,0,
2014-08-06, 00:57:04,VALID,1009.35,VALID,0,VALID,104,VALID,0,VALID,23.2654,VALID,322,VALID,0,
2014-08-06, 00:58:04,VALID,1009.35,VALID,0,VALID,104,VALID,0,VALID,23.2654,VALID,322,VALID,0,
2014-08-06, 00:59:04,VALID,1009.34,VALID,0,VALID,104,VALID,0,VALID,23.2459,VALID,322,VALID,0,
2014-08-06, 01:00:04,VALID,1009.32,VALID,0,VALID,104,VALID,0.112112,VALID,23.2654,VALID,322,VALID,0,
2014-08-06, 01:01:04,VALID,1009.34,VALID,0,VALID,104,VALID,0.112112,VALID,23.2654,VALID,322,VALID,0,
2014-08-06, 01:02:04,VALID,1009.32,VALID,0,VALID,104,VALID,0.112112,VALID,23.2848,VALID,322,VALID,0,
2014-08-06, 01:03:04,VALID,1009.33,VALID,0,VALID,104,VALID,0,VALID,23.2848,VALID,322,VALID,0,
2014-08-06, 01:04:04,VALID,1009.29,VALID,0,VALID,104,VALID,0,VALID,23.2848,VALID,322,VALID,0,
2014-08-06, 01:05:04,VALID,1009.26,VALID,0,VALID,104,VALID,0,VALID,23.3043,VALID,322,VALID,0,
2014-08-06, 01:06:04,VALID,1009.22,VALID,0,VALID,104,VALID,0,VALID,23.3238,VALID,322,VALID,0,
2014-08-06, 01:07:04,VALID,1009.2,VALID,0,VALID,104,VALID,0.112112,VALID,23.3238,VALID,322,VALID,0,
2014-08-06, 01:08:04,VALID,1009.17,VALID,0,VALID,104,VALID,0.112112,VALID,23.3026,VALID,327,VALID,0,
2014-08-06, 01:09:04,VALID,1009.14,VALID,0,VALID,104,VALID,0.112112,VALID,23.3238,VALID,1,VALID,0,
2014-08-06, 01:10:04,VALID,1009.08,VALID,0,VALID,104,VALID,0.112112,VALID,23.3026,VALID,1,VALID,0,
2014-08-06, 01:11:04,VALID,1009.03,VALID,0,VALID,104,VALID,0,VALID,23.3433,VALID,1,VALID,0,
2014-08-06, 01:12:04,VALID,1008.99,VALID,0,VALID,104,VALID,0,VALID,23.3433,VALID,1,VALID,0,
2014-08-06, 01:13:04,VALID,1008.99,VALID,0,VALID,104,VALID,0,VALID,23.3433,VALID,1,VALID,0,
2014-08-06, 01:14:04,VALID,1008.99,VALID,0,VALID,104,VALID,0.112112,VALID,23.3415,VALID,1,VALID,0,
2014-08-06, 01:15:04,VALID,1009.01,VALID,0,VALID,104,VALID,0.112112,VALID,23.361,VALID,1,VALID,0,
2014-08-06, 01:16:04,VALID,1009.07,VALID,0,VALID,104,VALID,0.112112,VALID,23.4017,VALID,1,VALID,0,
2014-08-06, 01:17:04,VALID,1009.11,VALID,0,VALID,104,VALID,0.112112,VALID,23.4212,VALID,1,VALID,0,
2014-08-06, 01:18:04,VALID,1009.13,VALID,0,VALID,104,VALID,0.112112,VALID,23.4194,VALID,1,VALID,0,
2014-08-06, 01:19:04,VALID,1009.19,VALID,0,VALID,104,VALID,0.112112,VALID,23.4407,VALID,22,VALID,0,
2014-08-06, 01:20:04,VALID,1009.23,VALID,0,VALID,104,VALID,0,VALID,23.4212,VALID,26,VALID,0,
2014-08-06, 01:21:04,VALID,1009.28,VALID,0,VALID,104,VALID,0,VALID,23.4212,VALID,26,VALID,0,
2014-08-06, 01:22:04,VALID,1009.28,VALID,0,VALID,104,VALID,0,VALID,23.4212,VALID,26,VALID,0,
2014-08-06, 01:23:04,VALID,1009.26,VALID,0,VALID,104,VALID,0.112112,VALID,23.4407,VALID,26,VALID,0,
2014-08-06, 01:24:04,VALID,1009.23,VALID,0,VALID,104,VALID,0.112112,VALID,23.4212,VALID,26,VALID,0,
2014-08-06, 01:25:04,VALID,1009.25,VALID,0,VALID,104,VALID,0,VALID,23.4389,VALID,26,VALID,0,
2014-08-06, 01:26:04,VALID,1009.17,VALID,0,VALID,104,VALID,0,VALID,23.4407,VALID,26,VALID,0,
2014-08-06, 01:27:04,VALID,1009.14,VALID,0,VALID,104,VALID,0,VALID,23.4407,VALID,26,VALID,0,
2014-08-06, 01:28:04,VALID,1009.11,VALID,0,VALID,104,VALID,0.112112,VALID,23.4407,VALID,26,VALID,0,
2014-08-06, 01:29:04,VALID,1009.09,VALID,0,VALID,104,VALID,0,VALID,23.4602,VALID,26,VALID,0,
2014-08-06, 01:30:04,VALID,1009.09,VALID,0,VALID,104,VALID,0,VALID,23.4389,VALID,26,VALID,0,
2014-08-06, 01:31:04,VALID,1009.08,VALID,0,VALID,104,VALID,0,VALID,23.4797,VALID,26,VALID,0,
2014-08-06, 01:32:04,VALID,1009.1,VALID,0,VALID,104,VALID,0.112112,VALID,23.4992,VALID,26,VALID,0,
2014-08-06, 01:33:04,VALID,1009.16,VALID,0,VALID,104,VALID,0,VALID,23.4974,VALID,26,VALID,0,
2014-08-06, 01:34:04,VALID,1009.15,VALID,0,VALID,104,VALID,0.112112,VALID,23.4974,VALID,26,VALID,0,
2014-08-06, 01:35:04,VALID,1009.15,VALID,0,VALID,104,VALID,0,VALID,23.5381,VALID,26,VALID,0,
2014-08-06, 01:36:04,VALID,1009.15,VALID,0,VALID,104,VALID,0.112112,VALID,23.5169,VALID,26,VALID,0,
2014-08-06, 01:37:04,VALID,1009.18,VALID,0,VALID,104,VALID,0,VALID,23.5363,VALID,26,VALID,0,
2014-08-06, 01:38:04,VALID,1009.19,VALID,0,VALID,104,VALID,0,VALID,23.5771,VALID,26,VALID,0,
2014-08-06, 01:39:04,VALID,1009.21,VALID,0,VALID,104,VALID,0.112112,VALID,23.5948,VALID,26,VALID,0,
2014-08-06, 01:40:04,VALID,1009.2,VALID,0,VALID,104,VALID,0,VALID,23.6161,VALID,26,VALID,0,
2014-08-06, 01:41:04,VALID,1009.2,VALID,0,VALID,104,VALID,0.112112,VALID,23.5948,VALID,26,VALID,0,
2014-08-06, 01:42:04,VALID,1009.2,VALID,0,VALID,104,VALID,0.112112,VALID,23.5948,VALID,26,VALID,0,
2014-08-06, 01:43:04,VALID,1009.21,VALID,0,VALID,104,VALID,0.112112,VALID,23.5948,VALID,26,VALID,0,
2014-08-06, 01:44:04,VALID,1009.2,VALID,0,VALID,104,VALID,0.112112,VALID,23.5948,VALID,26,VALID,0,
2014-08-06, 01:45:04,VALID,1009.22,VALID,0,VALID,104,VALID,0,VALID,23.5966,VALID,26,VALID,0,
2014-08-06, 01:46:04,VALID,1009.22,VALID,0,VALID,104,VALID,0.112112,VALID,23.5948,VALID,26,VALID,0,
2014-08-06, 01:47:04,VALID,1009.19,VALID,0,VALID,104,VALID,0.112112,VALID,23.5753,VALID,26,VALID,0,
2014-08-06, 01:48:04,VALID,1009.2,VALID,0,VALID,104,VALID,0,VALID,23.6356,VALID,26,VALID,0,
2014-08-06, 01:49:04,VALID,1009.17,VALID,0,VALID,104,VALID,0.112112,VALID,23.6745,VALID,26,VALID,0,
2014-08-06, 01:50:04,VALID,1009.15,VALID,0,VALID,104,VALID,0.112112,VALID,23.6727,VALID,26,VALID,0,
2014-08-06, 01:51:04,VALID,1009.15,VALID,0,VALID,104,VALID,0.112112,VALID,23.6727,VALID,26,VALID,0,
2014-08-06, 01:52:04,VALID,1009.12,VALID,0,VALID,104,VALID,0.112112,VALID,23.6727,VALID,26,VALID,0,
2014-08-06, 01:53:04,VALID,1009.09,VALID,0,VALID,104,VALID,0.112112,VALID,23.6727,VALID,26,VALID,0,
2014-08-06, 01:54:04,VALID,1009.1,VALID,0,VALID,104,VALID,0.112112,VALID,23.694,VALID,360,VALID,0,
2014-08-06, 01:55:04,VALID,1009.09,VALID,0,VALID,104,VALID,0.112112,VALID,23.7117,VALID,280,VALID,0,
2014-08-06, 01:56:04,VALID,1009.06,VALID,0,VALID,104,VALID,0.112112,VALID,23.7525,VALID,280,VALID,0,
2014-08-06, 01:57:04,VALID,1009.07,VALID,0,VALID,104,VALID,0,VALID,23.772,VALID,281,VALID,0,
2014-08-06, 01:58:04,VALID,1009.06,VALID,0,VALID,104,VALID,0.112112,VALID,23.772,VALID,281,VALID,0,
2014-08-06, 01:59:04,VALID,1009.09,VALID,0,VALID,104,VALID,0.112112,VALID,23.8109,VALID,280,VALID,0,
2014-08-06, 02:00:04,VALID,1009.08,VALID,0,VALID,104,VALID,0.112112,VALID,23.8304,VALID,226,VALID,0,
2014-08-06, 02:01:04,VALID,1009.11,VALID,0,VALID,104,VALID,0.112112,VALID,23.8286,VALID,216,VALID,0,
2014-08-06, 02:02:04,VALID,1009.1,VALID,0,VALID,104,VALID,0.112112,VALID,23.8676,VALID,216,VALID,0,
2014-08-06, 02:03:04,VALID,1009.1,VALID,0,VALID,104,VALID,0,VALID,23.8871,VALID,213,VALID,0,
2014-08-06, 02:04:04,VALID,1009.1,VALID,0,VALID,104,VALID,0.112112,VALID,23.9473,VALID,243,VALID,0,
2014-08-06, 02:05:04,VALID,1009.1,VALID,0,VALID,104,VALID,0.112112,VALID,23.9668,VALID,270,VALID,0,
2014-08-06, 02:06:04,VALID,1009.08,VALID,0,VALID,104,VALID,0.112112,VALID,23.9455,VALID,270,VALID,0,
2014-08-06, 02:07:04,VALID,1009.08,VALID,0,VALID,104,VALID,0.112112,VALID,23.9455,VALID,270,VALID,0,
2014-08-06, 02:08:04,VALID,1009.06,VALID,0,VALID,104,VALID,0.112112,VALID,23.9455,VALID,270,VALID,0,
2014-08-06, 02:09:04,VALID,1009.08,VALID,0,VALID,104,VALID,0.112112,VALID,23.9455,VALID,270,VALID,0,
2014-08-06, 02:10:04,VALID,1009.04,VALID,0,VALID,104,VALID,0.112112,VALID,23.9455,VALID,270,VALID,0,
2014-08-06, 02:11:04,VALID,1009.07,VALID,0,VALID,104,VALID,0.112112,VALID,23.965,VALID,270,VALID,0,
2014-08-06, 02:12:04,VALID,1009.06,VALID,0,VALID,104,VALID,0.112112,VALID,23.965,VALID,270,VALID,0,
2014-08-06, 02:13:04,VALID,1009.06,VALID,0,VALID,104,VALID,0.112112,VALID,23.9455,VALID,270,VALID,0,
2014-08-06, 02:14:04,VALID,1009.07,VALID,0,VALID,104,VALID,0.112112,VALID,23.9455,VALID,270,VALID,0,
2014-08-06, 02:15:04,VALID,1009.04,VALID,0,VALID,104,VALID,0.112112,VALID,23.926,VALID,270,VALID,0,
2014-08-06, 02:16:04,VALID,1009.01,VALID,0,VALID,104,VALID,0.112112,VALID,23.926,VALID,270,VALID,0,
2014-08-06, 02:17:04,VALID,1009.01,VALID,0,VALID,104,VALID,0.112112,VALID,23.926,VALID,270,VALID,0,
2014-08-06, 02:18:04,VALID,1008.96,VALID,0,VALID,104,VALID,0.112112,VALID,23.9065,VALID,270,VALID,0,
2014-08-06, 02:19:04,VALID,1008.97,VALID,0,VALID,104,VALID,0.112112,VALID,23.8871,VALID,270,VALID,0,
2014-08-06, 02:20:04,VALID,1008.93,VALID,0,VALID,104,VALID,0.112112,VALID,23.8676,VALID,270,VALID,0,
2014-08-06, 02:21:04,VALID,1008.94,VALID,0,VALID,104,VALID,0.112112,VALID,23.8481,VALID,270,VALID,0,
2014-08-06, 02:22:04,VALID,1008.9,VALID,0,VALID,104,VALID,0.112112,VALID,23.8091,VALID,270,VALID,0,
2014-08-06, 02:23:04,VALID,1008.91,VALID,0,VALID,104,VALID,0.112112,VALID,23.7914,VALID,270,VALID,0,
2014-08-06, 02:24:04,VALID,1008.92,VALID,0,VALID,104,VALID,0.112112,VALID,23.7507,VALID,270,VALID,0,
2014-08-06, 02:25:04,VALID,1008.93,VALID,0,VALID,104,VALID,0.112112,VALID,23.7117,VALID,270,VALID,0,
2014-08-06, 02:26:04,VALID,1008.96,VALID,0,VALID,104,VALID,0,VALID,23.7135,VALID,270,VALID,0,
2014-08-06, 02:27:04,VALID,1008.98,VALID,0,VALID,104,VALID,0,VALID,23.694,VALID,270,VALID,0,
2014-08-06, 02:28:04,VALID,1008.98,VALID,0,VALID,104,VALID,0,VALID,23.6745,VALID,270,VALID,0,
2014-08-06, 02:29:04,VALID,1009.02,VALID,0,VALID,104,VALID,0,VALID,23.655,VALID,270,VALID,0,
2014-08-06, 02:30:04,VALID,1009.07,VALID,0,VALID,104,VALID,0,VALID,23.6356,VALID,270,VALID,0,
2014-08-06, 02:31:04,VALID,1009.06,VALID,0,VALID,104,VALID,0,VALID,23.6356,VALID,270,VALID,0,
2014-08-06, 02:32:04,VALID,1009.05,VALID,0,VALID,104,VALID,0,VALID,23.6161,VALID,270,VALID,0,
2014-08-06, 02:33:04,VALID,1009.02,VALID,0,VALID,104,VALID,0,VALID,23.6373,VALID,270,VALID,0,
2014-08-06, 02:34:04,VALID,1009.04,VALID,0,VALID,104,VALID,0,VALID,23.6356,VALID,270,VALID,0,
2014-08-06, 02:35:04,VALID,1009,VALID,0,VALID,104,VALID,0,VALID,23.6161,VALID,270,VALID,0,
2014-08-06, 02:36:04,VALID,1009.04,VALID,0,VALID,104,VALID,0,VALID,23.6356,VALID,270,VALID,0,
2014-08-06, 02:37:04,VALID,1009.03,VALID,0,VALID,104,VALID,0,VALID,23.6356,VALID,270,VALID,0,
2014-08-06, 02:38:04,VALID,1009.03,VALID,0,VALID,104,VALID,0,VALID,23.6356,VALID,270,VALID,0,
2014-08-06, 02:39:04,VALID,1009.05,VALID,0,VALID,104,VALID,0,VALID,23.6356,VALID,270,VALID,0,
2014-08-06, 02:40:04,VALID,1009.07,VALID,0,VALID,104,VALID,0,VALID,23.6161,VALID,270,VALID,0,
2014-08-06, 02:41:04,VALID,1009.1,VALID,0,VALID,104,VALID,0.112112,VALID,23.6143,VALID,270,VALID,0,
2014-08-06, 02:42:04,VALID,1009.08,VALID,0,VALID,104,VALID,0.112112,VALID,23.6356,VALID,270,VALID,0,
2014-08-06, 02:43:04,VALID,1009.08,VALID,0,VALID,104,VALID,0.112112,VALID,23.5948,VALID,270,VALID,0,
2014-08-06, 02:44:04,VALID,1009.08,VALID,0,VALID,104,VALID,0.112112,VALID,23.5948,VALID,270,VALID,0,
2014-08-06, 02:45:04,VALID,1009.06,VALID,0,VALID,104,VALID,0,VALID,23.5966,VALID,270,VALID,0,
2014-08-06, 02:46:04,VALID,1009.06,VALID,0,VALID,104,VALID,0.112112,VALID,23.5753,VALID,270,VALID,0,
2014-08-06, 02:47:04,VALID,1009.08,VALID,0,VALID,104,VALID,0.112112,VALID,23.5753,VALID,270,VALID,0,
2014-08-06, 02:48:04,VALID,1009.09,VALID,0,VALID,104,VALID,0.112112,VALID,23.5558,VALID,270,VALID,0,
2014-08-06, 02:49:04,VALID,1009.1,VALID,0,VALID,104,VALID,0.112112,VALID,23.5558,VALID,270,VALID,0,
2014-08-06, 02:50:04,VALID,1009.07,VALID,0,VALID,104,VALID,0.112112,VALID,23.5558,VALID,270,VALID,0,
2014-08-06, 02:51:04,VALID,1009.12,VALID,0,VALID,104,VALID,0.112112,VALID,23.5363,VALID,270,VALID,0,
2014-08-06, 02:52:04,VALID,1009.1,VALID,0,VALID,104,VALID,0.112112,VALID,23.5363,VALID,270,VALID,0,
2014-08-06, 02:53:04,VALID,1009.12,VALID,0,VALID,104,VALID,0,VALID,23.5381,VALID,270,VALID,0,
2014-08-06, 02:54:04,VALID,1009.11,VALID,0,VALID,104,VALID,0,VALID,23.5169,VALID,270,VALID,0,
2014-08-06, 02:55:04,VALID,1009.14,VALID,0,VALID,104,VALID,0.112112,VALID,23.5169,VALID,270,VALID,0,
2014-08-06, 02:56:04,VALID,1009.19,VALID,0,VALID,104,VALID,0.112112,VALID,23.5381,VALID,270,VALID,0,
2014-08-06, 02:57:04,VALID,1009.18,VALID,0,VALID,104,VALID,0,VALID,23.4779,VALID,270,VALID,0,
2014-08-06, 02:58:04,VALID,1009.23,VALID,0,VALID,104,VALID,0,VALID,23.4992,VALID,270,VALID,0,
2014-08-06, 02:59:04,VALID,1009.23,VALID,0,VALID,104,VALID,0.112112,VALID,23.4992,VALID,270,VALID,0,
2014-08-06, 03:00:04,VALID,1009.25,VALID,0,VALID,104,VALID,0.112112,VALID,23.4992,VALID,270,VALID,0,
2014-08-06, 03:01:04,VALID,1009.25,VALID,0,VALID,104,VALID,0.112112,VALID,23.4797,VALID,270,VALID,0,
2014-08-06, 03:02:04,VALID,1009.26,VALID,0,VALID,104,VALID,0.112112,VALID,23.4584,VALID,270,VALID,0,
2014-08-06, 03:03:04,VALID,1009.28,VALID,0,VALID,104,VALID,0.112112,VALID,23.4584,VALID,270,VALID,0,
2014-08-06, 03:04:04,VALID,1009.26,VALID,0,VALID,104,VALID,0.112112,VALID,23.4389,VALID,270,VALID,0,
2014-08-06, 03:05:04,VALID,1009.29,VALID,0,VALID,104,VALID,0.112112,VALID,23.4584,VALID,270,VALID,0,
2014-08-06, 03:06:04,VALID,1009.3,VALID,0,VALID,104,VALID,0.112112,VALID,23.4797,VALID,270,VALID,0,
2014-08-06, 03:07:04,VALID,1009.31,VALID,0,VALID,104,VALID,0.112112,VALID,23.4584,VALID,270,VALID,0,
2014-08-06, 03:08:04,VALID,1009.27,VALID,0,VALID,104,VALID,0,VALID,23.4797,VALID,270,VALID,0,
2014-08-06, 03:09:04,VALID,1009.25,VALID,0,VALID,104,VALID,0.112112,VALID,23.4797,VALID,270,VALID,0,
2014-08-06, 03:10:04,VALID,1009.22,VALID,0,VALID,104,VALID,0,VALID,23.4584,VALID,270,VALID,0,
2014-08-06, 03:11:04,VALID,1009.19,VALID,0,VALID,104,VALID,0,VALID,23.4797,VALID,270,VALID,0,
2014-08-06, 03:12:04,VALID,1009.18,VALID,0,VALID,104,VALID,0,VALID,23.4992,VALID,270,VALID,0,
2014-08-06, 03:13:04,VALID,1009.18,VALID,0,VALID,104,VALID,0,VALID,23.4992,VALID,270,VALID,0,
2014-08-06, 03:14:04,VALID,1009.17,VALID,0,VALID,104,VALID,0.112112,VALID,23.4992,VALID,270,VALID,0,
2014-08-06, 03:15:04,VALID,1009.15,VALID,0,VALID,104,VALID,0,VALID,23.5186,VALID,292,VALID,0,
2014-08-06, 03:16:04,VALID,1009.16,VALID,0,VALID,104,VALID,0,VALID,23.5169,VALID,292,VALID,0,
2014-08-06, 03:17:04,VALID,1009.14,VALID,0,VALID,104,VALID,0,VALID,23.5576,VALID,292,VALID,0,
2014-08-06, 03:18:04,VALID,1009.13,VALID,0,VALID,104,VALID,0.112112,VALID,23.5381,VALID,292,VALID,0,
2014-08-06, 03:19:04,VALID,1009.13,VALID,0,VALID,104,VALID,0.112112,VALID,23.5576,VALID,292,VALID,0,
2014-08-06, 03:20:04,VALID,1009.11,VALID,0,VALID,104,VALID,0.112112,VALID,23.5576,VALID,292,VALID,0,
2014-08-06, 03:21:04,VALID,1009.1,VALID,0,VALID,104,VALID,0,VALID,23.5771,VALID,292,VALID,0,
2014-08-06, 03:22:04,VALID,1009.07,VALID,0,VALID,104,VALID,0.112112,VALID,23.5771,VALID,292,VALID,0,
2014-08-06, 03:23:04,VALID,1009.05,VALID,0,VALID,104,VALID,0,VALID,23.5753,VALID,292,VALID,0,
2014-08-06, 03:24:04,VALID,1009.02,VALID,0,VALID,104,VALID,0,VALID,23.6161,VALID,292,VALID,0,
2014-08-06, 03:25:04,VALID,1009.03,VALID,0,VALID,104,VALID,0.112112,VALID,23.6143,VALID,292,VALID,0,
2014-08-06, 03:26:04,VALID,1009.01,VALID,0,VALID,104,VALID,0,VALID,23.655,VALID,292,VALID,0,
2014-08-06, 03:27:04,VALID,1009.01,VALID,0,VALID,104,VALID,0.112112,VALID,23.655,VALID,292,VALID,0,
2014-08-06, 03:28:04,VALID,1009.05,VALID,0,VALID,104,VALID,0.112112,VALID,23.6745,VALID,292,VALID,0,
2014-08-06, 03:29:04,VALID,1009,VALID,0,VALID,104,VALID,0,VALID,23.6745,VALID,292,VALID,0,
2014-08-06, 03:30:04,VALID,1009,VALID,0,VALID,104,VALID,0,VALID,23.6727,VALID,292,VALID,0,
2014-08-06, 03:31:04,VALID,1008.99,VALID,0,VALID,104,VALID,0.112112,VALID,23.694,VALID,292,VALID,0,
2014-08-06, 03:32:04,VALID,1009,VALID,0,VALID,104,VALID,0,VALID,23.694,VALID,292,VALID,0,
2014-08-06, 03:33:04,VALID,1009.03,VALID,0,VALID,104,VALID,0,VALID,23.694,VALID,292,VALID,0,
2014-08-06, 03:34:04,VALID,1009.02,VALID,0,VALID,104,VALID,0.112112,VALID,23.694,VALID,292,VALID,0,
2014-08-06, 03:35:04,VALID,1009.06,VALID,0,VALID,104,VALID,0.112112,VALID,23.6532,VALID,292,VALID,0,
2014-08-06, 03:36:04,VALID,1009.07,VALID,0,VALID,104,VALID,0.112112,VALID,23.6745,VALID,292,VALID,0,
2014-08-06, 03:37:04,VALID,1009.09,VALID,0,VALID,104,VALID,0.112112,VALID,23.6745,VALID,292,VALID,0,
2014-08-06, 03:38:04,VALID,1009.12,VALID,0,VALID,104,VALID,0,VALID,23.6532,VALID,292,VALID,0,
2014-08-06, 03:39:04,VALID,1009.12,VALID,0,VALID,104,VALID,0.112112,VALID,23.6745,VALID,292,VALID,0,
2014-08-06, 03:40:04,VALID,1009.14,VALID,0,VALID,104,VALID,0,VALID,23.6338,VALID,292,VALID,0,
2014-08-06, 03:41:04,VALID,1009.17,VALID,0,VALID,104,VALID,0,VALID,23.6356,VALID,292,VALID,0,
2014-08-06, 03:42:04,VALID,1009.19,VALID,0,VALID,104,VALID,0,VALID,23.655,VALID,292,VALID,0,
2014-08-06, 03:43:04,VALID,1009.2,VALID,0,VALID,104,VALID,0,VALID,23.655,VALID,292,VALID,0,
2014-08-06, 03:44:04,VALID,1009.24,VALID,0,VALID,104,VALID,0,VALID,23.6338,VALID,292,VALID,0,
2014-08-06, 03:45:04,VALID,1009.24,VALID,0,VALID,104,VALID,0,VALID,23.6763,VALID,292,VALID,0,
2014-08-06, 03:46:04,VALID,1009.29,VALID,0,VALID,104,VALID,0,VALID,23.655,VALID,292,VALID,0,
2014-08-06, 03:47:04,VALID,1009.27,VALID,0,VALID,104,VALID,0,VALID,23.655,VALID,292,VALID,0,
2014-08-06, 03:48:04,VALID,1009.28,VALID,0,VALID,104,VALID,0,VALID,23.6745,VALID,292,VALID,0,
2014-08-06, 03:49:04,VALID,1009.25,VALID,0,VALID,104,VALID,0,VALID,23.6745,VALID,292,VALID,0,
2014-08-06, 03:50:04,VALID,1009.2,VALID,0,VALID,104,VALID,0,VALID,23.6745,VALID,292,VALID,0,
2014-08-06, 03:51:04,VALID,1009.17,VALID,0,VALID,104,VALID,0,VALID,23.6745,VALID,292,VALID,0,
2014-08-06, 03:52:04,VALID,1009.19,VALID,0,VALID,104,VALID,0,VALID,23.6727,VALID,292,VALID,0,
2014-08-06, 03:53:04,VALID,1009.14,VALID,0,VALID,104,VALID,0,VALID,23.7153,VALID,292,VALID,0,
2014-08-06, 03:54:04,VALID,1009.17,VALID,0,VALID,104,VALID,0,VALID,23.6745,VALID,292,VALID,0,
2014-08-06, 03:55:04,VALID,1009.17,VALID,0,VALID,104,VALID,0,VALID,23.6745,VALID,292,VALID,0,
2014-08-06, 03:56:04,VALID,1009.2,VALID,0,VALID,104,VALID,0,VALID,23.6745,VALID,292,VALID,0,
2014-08-06, 03:57:04,VALID,1009.24,VALID,0,VALID,104,VALID,0,VALID,23.694,VALID,292,VALID,0,
2014-08-06, 03:58:04,VALID,1009.27,VALID,0,VALID,104,VALID,0,VALID,23.694,VALID,292,VALID,0,
2014-08-06, 03:59:04,VALID,1009.29,VALID,0,VALID,104,VALID,0,VALID,23.694,VALID,292,VALID,0,
2014-08-06, 04:00:04,VALID,1009.28,VALID,0,VALID,104,VALID,0,VALID,23.694,VALID,292,VALID,0,
2014-08-06, 04:01:04,VALID,1009.29,VALID,0,VALID,104,VALID,0,VALID,23.694,VALID,292,VALID,0,